Wind_Speed
11 15 16 16 16 23 25 19 15 6 2 5 7 15 20 16 15 10 17 23 26 24 22 13 13 15 14 10 6 3 2 2 1 9 13 14 14 17 21 26 25 22 20 11
12 20 21 12 13 18 21 17 15 19 7 9 11 10 14 20 11 10 18 20 22 26 26 22 13 16 18 4 7 5 2 1 6 10 13 14 16 18 22 25 26 21 18 11
21 20 19 22 22 20 21 20 13 15 9 7 17 15 14 19 19 16 15 16 22 28 29 28 22 17 15 7 6 7 4 3 6 10 12 14 15 20 22 23 27 19 15 11
20 16 18 19 19 13 18 18 19 15 16 19 18 14 14 23 22 18 5 19 21 30 32 31 30 19 12 7 2 6 7 6 7 8 9 13 13 14 14 17 24 20 17 13
20 17 18 22 20 19 26 19 20 13 12 20 20 11 12 16 13 9 19 23 23 26 27 29 32 24 15 10 3 3 10 10 9 9 7 11 16 18 17 16 22 18 16 14
27 25 25 24 15 19 19 19 22 22 20 17 24 9 11 13 20 17 13 29 28 28 31 32 29 22 19 14 6 5 9 11 11 12 12 12 13 10 20 15 17 17 12 13
23 25 25 23 23 19 20 16 16 11 9 9 11 13 15 12 12 19 15 7 16 29 30 26 30 25 22 18 11 7 8 13 12 13 14 12 12 10 13 14 14 15 11 11
28 28 25 26 29 27 19 18 18 7 4 11 17 12 15 4 10 10 7 8 12 17 30 23 29 28 17 17 11 11 8 16 14 12 14 12 12 9 9 7 11 14 13 13
26 30 27 22 26 19 21 20 20 26 28 21 25 20 6 11 6 11 1 8 17 21 24 29 31 26 20 17 11 13 7 16 14 14 15 12 12 11 9 12 15 13 12 13
30 29 22 22 15 15 17 16 21 18 3 7 19 5 19 16 7 14 17 16 14 26 23 22 25 26 23 20 13 11 9 13 10 14 15 12 11 11 10 10 9 9 10 13
16 30 31 23 23 19 17 20 19 22 20 3 4 6 7 10 14 15 10 21 17 18 23 21 24 21 17 23 16 6 10 12 11 10 14 14 11 8 8 7 7 6 9 8
24 29 19 31 26 22 23 23 21 22 17 24 23 16 6 6 12 12 10 12 7 21 22 20 24 21 23 19 25 13 11 15 11 9 8 10 10 8 6 6 7 9 10 11
13 14 13 17 17 26 25 21 24 24 28 29 17 16 13 5 10 12 9 4 8 15 21 21 25 23 22 17 14 18 16 19 17 13 13 7 9 9 9 7 10 8 8 10
14 12 16 19 24 24 26 24 26 20 24 26 30 30 18 13 13 17 15 9 2 18 18 24 24 25 23 25 21 18 9 11 20 16 10 7 7 7 6 9 8 7 7 8
7 15 18 23 24 33 32 28 26 27 30 27 33 30 16 17 8 18 11 10 3 11 23 23 26 25 23 23 15 23 12 9 16 19 18 10 9 8 4 8 12 12 11 9
12 16 20 24 21 20 35 37 28 22 31 34 28 34 27 23 18 16 18 14 8 7 15 26 26 23 23 21 20 10 13 12 17 18 14 14 13 9 7 8 12 13 12 12
27 20 21 27 15 23 30 28 26 32 30 30 33 30 29 27 28 25 28 22 15 13 11 28 29 25 21 17 10 13 15 15 17 19 16 15 13 9 10 10 10 10 12 13
29 28 26 28 20 9 27 17 13 18 20 25 30 28 20 23 29 24 30 23 20 17 12 16 30 25 21 17 16 16 17 17 19 19 18 20 17 14 13 13 14 13 14 15
20 25 33 30 23 32 39 30 23 20 29 19 26 17 15 23 19 21 23 24 18 23 14 13 16 17 19 18 16 17 16 15 15 15 15 16 15 14 13 12 13 15 17 18
17 28 30 32 21 23 37 28 32 30 42 23 21 28 21 20 20 20 23 25 29 24 17 16 12 13 16 17 20 18 18 17 16 14 13 13 12 11 12 14 16 17 17 17
28 28 24 34 20 29 29 26 32 18 22 18 17 16 8 17 13 14 26 28 34 28 21 20 15 8 6 11 16 16 15 14 14 13 12 11 11 11 12 12 13 14 15 16
21 20 16 22 21 19 28 23 17 20 14 12 11 24 14 10 1 8 21 27 25 27 26 21 15 9 9 12 13 14 14 13 12 12 12 11 10 11 11 12 13 14 14 15
17 12 11 10 12 15 16 20 29 29 14 12 16 15 17 8 2 5 13 20 22 23 24 26 19 14 13 16 15 14 13 12 12 11 9 9 9 9 7 8 9 10 11 13
19 19 15 15 17 21 22 23 35 31 21 15 20 13 10 7 8 2 6 6 3 15 38 35 29 20 18 18 18 12 8 9 10 9 8 8 7 6 6 7 9 10 12 13
18 17 22 14 19 15 13 14 22 27 28 18 27 25 11 11 3 8 10 7 11 13 38 42 31 25 22 16 12 9 7 9 10 10 8 7 6 4 5 6 8 10 12 13
24 23 15 22 20 17 15 17 22 19 20 23 31 30 19 15 9 12 14 16 20 34 36 37 31 28 22 16 10 9 7 9 11 9 7 5 2 1 2 4 6 7 9 11
Wind_Direction
237 250 260 275 278 279 290 289 316 258 305 210 259 282 275 264 291 222 210 216 226 201 224 233 238 266 294 304 245 264 297 346 207 177 178 171 171 177 180 176 192 188 179 174
240 248 257 267 290 295 294 308 299 301 187 248 280 281 278 237 261 244 236 250 224 210 233 233 234 278 296 307 222 232 228 140 173 158 167 166 165 178 181 180 186 187 197 190
246 264 279 269 270 264 281 288 295 287 292 258 300 261 249 234 231 323 233 221 219 226 231 226 230 254 294 306 232 218 198 175 166 179 175 175 172 175 182 188 191 188 195 210
250 272 277 280 274 274 274 284 291 302 306 310 302 267 238 242 244 302 247 222 240 219 225 231 240 249 290 303 297 217 208 187 162 180 174 165 172 173 190 196 195 181 192 218
259 260 275 270 271 270 277 281 291 286 298 302 285 256 268 225 241 235 199 227 217 204 221 234 235 250 260 262 298 280 228 199 182 169 182 174 160 155 176 180 187 194 193 211
260 263 267 271 277 270 272 273 277 283 294 286 288 311 252 201 275 208 195 228 225 200 220 236 231 238 249 248 267 283 238 212 193 184 181 184 190 197 182 185 183 192 180 209
264 258 258 251 259 266 257 277 270 286 277 246 245 281 263 254 217 239 238 197 182 199 216 226 225 221 248 251 267 268 259 221 207 196 195 193 191 203 197 192 191 195 185 178
278 285 268 265 238 241 261 252 244 253 257 276 290 239 252 85 172 233 241 245 192 186 208 223 219 225 258 244 267 262 261 221 211 204 198 202 212 198 189 188 196 194 193 208
251 271 280 289 257 222 249 259 268 274 277 290 287 279 33 224 207 186 292 226 209 203 207 219 219 225 237 236 238 262 244 224 211 208 208 195 197 211 213 197 221 221 219 217
253 253 273 285 277 227 236 273 261 261 259 269 285 321 156 162 167 160 168 159 161 219 222 225 226 230 235 241 243 240 214 229 217 209 211 211 198 202 200 208 217 232 239 248
271 250 258 263 272 245 233 230 255 270 274 228 300 311 218 244 231 202 239 239 271 199 213 231 238 232 240 238 234 252 227 228 224 197 203 210 217 210 207 212 207 230 253 250
237 289 298 251 255 260 273 245 241 236 267 275 284 281 317 228 228 251 271 235 224 207 198 222 241 224 221 237 239 249 251 235 236 207 201 204 206 223 220 248 236 231 242 254
311 276 302 305 265 249 253 264 256 248 248 248 253 266 248 228 255 238 233 248 280 164 196 216 235 219 228 232 257 247 253 225 241 227 216 235 226 238 241 233 235 226 224 229
294 279 274 266 274 286 302 315 315 271 290 257 255 265 219 255 236 202 184 243 318 183 195 223 225 222 227 232 233 238 252 218 226 227 237 228 241 246 233 235 243 251 227 214
332 309 282 278 278 280 289 291 292 275 283 278 271 269 264 190 233 190 202 227 151 183 210 221 216 218 224 228 230 216 247 229 218 230 237 237 246 244 249 260 257 257 263 265
272 315 299 282 306 295 282 273 280 274 268 276 295 268 276 257 231 202 209 209 225 243 194 208 214 217 228 236 250 240 243 257 225 231 226 235 201 205 279 289 263 256 259 270
277 291 303 287 294 299 279 269 267 263 275 280 284 300 263 262 228 207 202 213 229 237 199 205 220 219 226 238 261 261 255 245 232 227 228 198 223 220 254 259 262 262 262 270
267 263 271 278 282 266 248 246 256 282 295 277 267 283 335 245 211 222 211 208 221 218 213 201 214 221 230 236 238 226 211 203 204 217 211 213 232 234 245 256 257 252 259 266
273 257 261 257 249 261 256 251 271 304 288 279 283 265 298 217 202 196 205 232 221 197 225 214 208 213 221 208 202 195 187 182 186 191 199 208 223 238 243 246 256 269 274 276
275 261 242 245 240 251 269 269 274 285 292 292 267 251 313 259 230 212 183 160 164 189 232 222 203 202 205 190 191 189 191 198 201 203 203 209 212 221 237 255 270 274 274 275
290 285 257 241 248 258 259 268 268 262 285 267 264 209 191 222 250 223 209 211 209 197 207 240 216 205 202 165 175 188 186 183 181 186 193 206 224 239 258 268 272 269 272 280
308 290 290 248 242 263 266 257 266 245 235 243 214 229 255 253 241 200 175 162 166 167 198 226 199 197 201 209 195 188 192 195 195 201 210 225 239 250 261 272 277 275 274 275
302 304 290 263 235 244 264 255 252 254 222 224 193 182 230 214 120 216 215 205 204 209 186 211 212 191 185 203 201 194 192 197 204 205 208 221 235 247 250 255 256 263 276 276
305 322 277 283 270 268 254 265 248 245 252 236 224 185 220 136 216 177 272 250 292 153 174 205 214 192 182 183 184 178 178 190 195 200 193 191 203 227 243 256 267 273 280 291
275 295 305 303 306 308 311 279 256 264 254 240 248 228 180 185 220 213 222 243 247 197 184 204 202 197 192 177 169 173 184 194 194 185 191 207 219 245 272 291 304 306 304 302
260 243 266 300 314 298 306 295 294 236 228 242 239 220 172 139 203 208 217 219 193 192 196 202 198 202 194 180 165 181 193 191 189 196 202 218 223 354 318 293 288 293 306 312
Height
3174 3175 3174 3171 3171 3171 3170 3167 3167 3166 3165 3167 3167 3166 3164 3167 3170 3169 3167 3170 3171 3176 3175 3176 3173 3170 3171 3171 3173 3174 3175 3174 3173 3173 3176 3180 3185 3188 3191 3196 3199 3203 3208 3210
3173 3172 3170 3170 3170 3169 3167 3166 3166 3166 3163 3164 3164 3164 3163 3161 3164 3164 3165 3169 3170 3173 3174 3176 3173 3170 3171 3172 3173 3174 3175 3175 3175 3176 3178 3180 3184 3188 3192 3195 3199 3204 3206 3209
3170 3169 3168 3169 3167 3167 3166 3166 3165 3163 3163 3162 3163 3163 3160 3158 3159 3159 3162 3165 3169 3172 3173 3174 3174 3170 3170 3171 3173 3174 3175 3175 3176 3177 3179 3181 3184 3186 3190 3194 3198 3203 3207 3207
3166 3166 3166 3166 3166 3166 3164 3163 3163 3160 3160 3159 3162 3160 3159 3156 3158 3158 3162 3161 3164 3167 3168 3171 3172 3171 3170 3171 3171 3173 3174 3176 3177 3178 3181 3183 3186 3189 3192 3195 3199 3202 3206 3206
3162 3164 3163 3163 3163 3163 3161 3162 3160 3159 3157 3157 3156 3158 3155 3156 3157 3152 3149 3150 3156 3161 3162 3166 3169 3170 3169 3170 3171 3173 3174 3176 3177 3178 3181 3184 3187 3190 3191 3194 3198 3201 3206 3209
3158 3159 3159 3158 3158 3158 3158 3157 3156 3155 3154 3153 3154 3154 3151 3151 3155 3150 3151 3151 3151 3153 3155 3161 3166 3168 3166 3168 3169 3172 3174 3175 3177 3178 3180 3184 3187 3189 3191 3194 3197 3201 3205 3209
3155 3153 3151 3154 3154 3154 3154 3154 3153 3154 3152 3149 3147 3148 3144 3141 3140 3139 3142 3144 3147 3152 3153 3156 3161 3165 3163 3165 3166 3170 3173 3174 3176 3178 3179 3183 3187 3189 3192 3194 3197 3200 3203 3207
3152 3148 3147 3148 3148 3148 3149 3151 3151 3153 3152 3144 3141 3139 3137 3138 3137 3138 3138 3140 3141 3141 3149 3153 3157 3160 3160 3163 3163 3168 3170 3172 3175 3177 3178 3180 3184 3187 3191 3193 3195 3197 3199 3203
3147 3143 3140 3141 3141 3145 3145 3146 3148 3146 3145 3142 3137 3130 3140 3137 3140 3140 3138 3136 3134 3142 3147 3151 3154 3155 3158 3161 3162 3167 3169 3170 3173 3175 3177 3179 3183 3184 3188 3192 3193 3196 3196 3199
3141 3139 3139 3137 3139 3140 3141 3143 3144 3142 3144 3144 3132 3133 3130 3134 3136 3136 3135 3130 3138 3144 3145 3145 3149 3155 3155 3158 3162 3166 3168 3170 3171 3173 3176 3177 3181 3184 3187 3190 3194 3196 3195 3196
3136 3136 3135 3136 3135 3137 3137 3138 3139 3140 3139 3137 3136 3134 3133 3132 3133 3134 3133 3132 3131 3142 3144 3146 3148 3151 3154 3157 3161 3164 3167 3168 3170 3172 3174 3177 3178 3181 3185 3187 3190 3193 3195 3195
3129 3133 3129 3129 3131 3132 3133 3132 3133 3135 3134 3133 3131 3131 3129 3129 3131 3134 3132 3133 3135 3141 3139 3143 3146 3149 3150 3154 3157 3161 3164 3167 3169 3172 3174 3177 3179 3180 3182 3184 3186 3189 3191 3193
3128 3127 3126 3125 3127 3128 3129 3130 3130 3128 3129 3128 3129 3129 3129 3128 3125 3129 3129 3131 3132 3133 3136 3139 3141 3145 3148 3151 3154 3157 3160 3164 3167 3169 3172 3176 3177 3179 3179 3181 3182 3184 3187 3189
3125 3124 3126 3125 3124 3125 3125 3125 3124 3126 3126 3124 3122 3122 3125 3125 3120 3123 3127 3131 3130 3131 3134 3138 3141 3144 3147 3147 3149 3154 3156 3160 3164 3166 3169 3172 3175 3175 3176 3178 3180 3181 3183 3186
3121 3120 3119 3117 3118 3116 3119 3121 3123 3123 3121 3121 3120 3119 3121 3123 3122 3123 3125 3130 3130 3131 3135 3136 3138 3143 3145 3147 3150 3149 3154 3157 3161 3163 3166 3169 3172 3173 3173 3174 3176 3177 3179 3181
3117 3116 3115 3112 3114 3116 3110 3108 3115 3116 3116 3117 3115 3113 3117 3120 3121 3119 3119 3126 3128 3130 3133 3134 3135 3140 3142 3144 3147 3145 3149 3154 3158 3161 3165 3166 3167 3169 3170 3170 3172 3173 3174 3176
3114 3115 3115 3109 3114 3111 3106 3107 3110 3114 3115 3113 3113 3113 3111 3112 3115 3115 3116 3121 3127 3132 3133 3135 3134 3135 3138 3141 3140 3143 3147 3151 3155 3159 3164 3165 3165 3167 3168 3169 3170 3170 3171 3172
3108 3109 3112 3107 3112 3110 3096 3102 3104 3106 3108 3106 3104 3108 3107 3101 3105 3112 3113 3118 3127 3131 3133 3132 3134 3134 3135 3137 3140 3143 3145 3148 3151 3156 3160 3162 3163 3163 3164 3165 3165 3166 3166 3166
3102 3103 3104 3104 3104 3096 3090 3099 3103 3103 3096 3104 3103 3104 3106 3105 3097 3104 3110 3111 3111 3126 3134 3132 3134 3134 3135 3136 3138 3139 3142 3145 3148 3152 3155 3158 3160 3161 3161 3162 3162 3163 3162 3163
3094 3096 3097 3095 3094 3088 3089 3095 3099 3100 3092 3100 3100 3097 3101 3102 3099 3103 3106 3109 3112 3123 3130 3131 3131 3133 3133 3134 3134 3136 3139 3142 3145 3147 3150 3153 3156 3157 3159 3159 3158 3158 3158 3158
3089 3086 3086 3085 3084 3084 3083 3086 3091 3095 3095 3094 3098 3095 3102 3099 3097 3103 3104 3108 3112 3120 3128 3131 3131 3131 3132 3132 3132 3133 3136 3138 3141 3143 3146 3149 3151 3153 3154 3154 3154 3154 3154 3154
3084 3081 3078 3079 3077 3076 3079 3084 3087 3083 3085 3086 3088 3092 3096 3093 3095 3098 3101 3103 3107 3114 3123 3127 3129 3130 3131 3132 3131 3131 3132 3135 3137 3140 3142 3144 3146 3148 3149 3150 3150 3150 3150 3149
3080 3079 3077 3078 3074 3073 3074 3076 3075 3078 3079 3081 3083 3089 3089 3088 3090 3094 3099 3106 3109 3117 3117 3125 3129 3129 3130 3132 3131 3130 3131 3133 3135 3136 3139 3140 3142 3143 3144 3145 3146 3146 3145 3144
3074 3071 3072 3071 3071 3072 3070 3065 3068 3073 3072 3076 3080 3081 3083 3080 3087 3091 3092 3097 3098 3092 3102 3118 3126 3126 3128 3131 3131 3129 3128 3131 3134 3136 3137 3138 3140 3140 3140 3140 3141 3142 3141 3140
3072 3069 3068 3067 3068 3067 3061 3061 3062 3062 3072 3071 3076 3076 3077 3080 3082 3087 3091 3091 3096 3097 3102 3111 3120 3124 3128 3128 3126 3128 3129 3131 3133 3134 3136 3137 3136 3135 3135 3135 3135 3136 3136 3136
3064 3066 3066 3064 3063 3061 3059 3058 3061 3061 3066 3073 3069 3069 3073 3076 3083 3082 3086 3092 3094 3100 3103 3107 3116 3121 3123 3124 3121 3125 3127 3130 3132 3133 3133 3133 3132 3131 3130 3130 3130 3131 3131 3131